• en France
  • Liste des pays
  • À 7 jours
  • Température de l'eau
  • Carte satellitaire
  • Carte météo
  • Widgets météo
  • user-avatar
    Se connecter

    Météo par heure à Santa-fe-de Bogota

    Ce jour, 16 Décembre, Samedi

    Heure Température Précipitation Vent Pression Humidité
    00:00 +10°C° 0 mm 1 m/s 548 mmHg 82%
    01:00 +10°C° 0 mm 1 m/s 548 mmHg 82%
    02:00 +9°C° 0 mm 1 m/s 548 mmHg 82%
    03:00 +9°C° 0 mm 1 m/s 548 mmHg 82%
    04:00 +9°C° 0 mm 1 m/s 548 mmHg 82%
    05:00 +10°C° 0 mm 1 m/s 548 mmHg 81%
    06:00 +10°C° 0 mm 1 m/s 549 mmHg 80%
    07:00 +11°C° 0 mm 1 m/s 549 mmHg 79%
    08:00 +12°C° 0 mm 1 m/s 550 mmHg 72%
    09:00 +14°C° 0 mm 1 m/s 551 mmHg 66%
    10:00 +16°C° 0 mm 2 m/s 552 mmHg 59%
    11:00 +16°C° 0 mm 2 m/s 552 mmHg 59%
    12:00 +18°C° 0 mm 1 m/s 552 mmHg 58%
    13:00 +18°C° 0 mm 1 m/s 551 mmHg 58%
    14:00 +18°C° 0 mm 1 m/s 551 mmHg 59%
    15:00 +18°C° 0 mm 1 m/s 550 mmHg 61%
    16:00 +18°C° 0 mm 1 m/s 550 mmHg 62%
    17:00 +15°C° 0 mm 1 m/s 549 mmHg 70%
    18:00 +13°C° 0 mm 1 m/s 548 mmHg 79%
    19:00 +11°C° 0 mm 1 m/s 547 mmHg 87%
    20:00 +11°C° 0 mm 1 m/s 547 mmHg 87%
    21:00 +11°C° 0 mm 1 m/s 548 mmHg 87%
    22:00 +11°C° 0 mm 1 m/s 548 mmHg 87%
    23:00 +10°C° 0 mm 1 m/s 548 mmHg 88%

    Demain, 17 Décembre, Dimanche

    Heure Température Précipitation Vent Pression Humidité
    00:00 +10°C° 0 mm 1 m/s 548 mmHg 88%
    01:00 +10°C° 0 mm 1 m/s 548 mmHg 88%
    02:00 +9°C° 0 mm 1 m/s 547 mmHg 88%
    03:00 +9°C° 0 mm 1 m/s 547 mmHg 87%
    04:00 +9°C° 0 mm 1 m/s 547 mmHg 87%
    05:00 +9°C° 0 mm 1 m/s 548 mmHg 85%
    06:00 +10°C° 0 mm 1 m/s 548 mmHg 84%
    07:00 +10°C° 0 mm 1 m/s 549 mmHg 82%
    08:00 +12°C° 0 mm 1 m/s 550 mmHg 71%
    09:00 +14°C° 0 mm 2 m/s 551 mmHg 61%
    10:00 +16°C° 0 mm 2 m/s 553 mmHg 50%
    11:00 +17°C° 0 mm 2 m/s 553 mmHg 48%
    12:00 +18°C° 0 mm 2 m/s 552 mmHg 47%
    13:00 +19°C° 0 mm 2 m/s 552 mmHg 45%
    14:00 +18°C° 0 mm 2 m/s 551 mmHg 48%
    15:00 +18°C° 0 mm 2 m/s 551 mmHg 51%
    16:00 +17°C° 0 mm 2 m/s 550 mmHg 54%
    17:00 +15°C° 0 mm 1 m/s 549 mmHg 64%
    18:00 +12°C° 0 mm 1 m/s 548 mmHg 74%
    19:00 +10°C° 0 mm 1 m/s 547 mmHg 84%
    20:00 +10°C° 0 mm 1 m/s 547 mmHg 84%
    21:00 +9°C° 0 mm 1 m/s 548 mmHg 83%
    22:00 +9°C° 0 mm 1 m/s 548 mmHg 83%
    23:00 +8°C° 0 mm 1 m/s 548 mmHg 82%

    Après-demain, 18 Décembre, Lundi

    Heure Température Précipitation Vent Pression Humidité
    00:00 +8°C° 0 mm 1 m/s 547 mmHg 81%
    01:00 +7°C° 0 mm 1 m/s 547 mmHg 80%
    02:00 +7°C° 0 mm 1 m/s 547 mmHg 77%
    03:00 +7°C° 0 mm 1 m/s 546 mmHg 74%
    04:00 +6°C° 0 mm 1 m/s 546 mmHg 71%
    05:00 +7°C° 0 mm 1 m/s 547 mmHg 67%
    06:00 +8°C° 0 mm 1 m/s 547 mmHg 63%
    07:00 +8°C° 0 mm 1 m/s 548 mmHg 59%
    08:00 +11°C° 0 mm 1 m/s 550 mmHg 50%
    09:00 +14°C° 0 mm 2 m/s 551 mmHg 41%
    10:00 +17°C° 0 mm 2 m/s 553 mmHg 32%
    11:00 +18°C° 0 mm 2 m/s 553 mmHg 32%
    12:00 +18°C° 0 mm 2 m/s 553 mmHg 32%
    13:00 +19°C° 0 mm 2 m/s 552 mmHg 32%
    14:00 +19°C° 0 mm 2 m/s 552 mmHg 35%
    15:00 +18°C° 0 mm 2 m/s 551 mmHg 38%
    16:00 +17°C° 0 mm 2 m/s 550 mmHg 41%
    17:00 +15°C° 0 mm 1 m/s 549 mmHg 52%
    18:00 +12°C° 0 mm 1 m/s 548 mmHg 62%
    19:00 +9°C° 0 mm 1 m/s 547 mmHg 72%
    20:00 +9°C° 0 mm 1 m/s 547 mmHg 72%
    21:00 +8°C° 0 mm 1 m/s 548 mmHg 72%
    22:00 +8°C° 0 mm 1 m/s 548 mmHg 72%
    23:00 +8°C° 0 mm 1 m/s 548 mmHg 73%

    19 Décembre, Mardi

    Heure Température Précipitation Vent Pression Humidité
    00:00 +7°C° 0 mm 1 m/s 548 mmHg 73%
    01:00 +7°C° 0 mm 1 m/s 547 mmHg 74%
    02:00 +7°C° 0 mm 1 m/s 547 mmHg 74%
    03:00 +7°C° 0 mm 1 m/s 547 mmHg 74%
    04:00 +6°C° 0 mm 1 m/s 546 mmHg 74%
    05:00 +7°C° 0 mm 1 m/s 547 mmHg 71%
    06:00 +8°C° 0 mm 1 m/s 548 mmHg 68%
    07:00 +8°C° 0 mm 1 m/s 549 mmHg 66%
    08:00 +11°C° 0 mm 1 m/s 550 mmHg 56%
    09:00 +14°C° 0 mm 2 m/s 552 mmHg 46%
    10:00 +17°C° 0 mm 2 m/s 553 mmHg 36%
    11:00 +18°C° 0 mm 2 m/s 553 mmHg 36%
    12:00 +18°C° 0 mm 2 m/s 553 mmHg 35%
    13:00 +19°C° 0 mm 2 m/s 552 mmHg 35%
    14:00 +18°C° 0 mm 2 m/s 551 mmHg 39%
    15:00 +18°C° 0 mm 2 m/s 551 mmHg 42%
    16:00 +18°C° 0 mm 1 m/s 550 mmHg 46%
    17:00 +15°C° 0 mm 1 m/s 549 mmHg 57%
    18:00 +12°C° 0 mm 1 m/s 548 mmHg 67%
    19:00 +10°C° 0 mm 1 m/s 547 mmHg 78%
    20:00 +9°C° 0 mm 1 m/s 548 mmHg 79%
    21:00 +9°C° 0 mm 1 m/s 548 mmHg 79%
    22:00 +9°C° 0 mm 1 m/s 548 mmHg 80%
    23:00 +8°C° 0 mm 1 m/s 548 mmHg 80%

    20 Décembre, Mercredi

    Heure Température Précipitation Vent Pression Humidité
    00:00 +8°C° 0 mm 1 m/s 548 mmHg 80%
    01:00 +8°C° 0 mm 1 m/s 547 mmHg 80%
    02:00 +8°C° 0 mm 1 m/s 547 mmHg 80%
    03:00 +7°C° 0 mm 1 m/s 547 mmHg 80%
    04:00 +7°C° 0 mm 1 m/s 547 mmHg 80%
    05:00 +8°C° 0 mm 1 m/s 547 mmHg 78%
    06:00 +8°C° 0 mm 1 m/s 548 mmHg 76%
    07:00 +9°C° 0 mm 1 m/s 549 mmHg 74%
    08:00 +11°C° 0 mm 1 m/s 550 mmHg 63%
    09:00 +14°C° 0 mm 1 m/s 551 mmHg 52%
    10:00 +16°C° 0 mm 2 m/s 552 mmHg 41%
    11:00 +17°C° 0 mm 2 m/s 552 mmHg 40%
    12:00 +18°C° 0 mm 2 m/s 552 mmHg 39%
    13:00 +19°C° 0 mm 2 m/s 552 mmHg 39%
    14:00 +18°C° 0 mm 2 m/s 551 mmHg 42%
    15:00 +19°C° 0 mm 1 m/s 550 mmHg 46%
    16:00 +18°C° 0 mm 1 m/s 549 mmHg 49%
    17:00 +15°C° 0 mm 1 m/s 549 mmHg 59%
    18:00 +12°C° 0 mm 1 m/s 548 mmHg 69%
    19:00 +10°C° 0 mm 1 m/s 547 mmHg 79%
    20:00 +10°C° 0 mm 1 m/s 547 mmHg 79%
    21:00 +10°C° 0 mm 1 m/s 548 mmHg 80%
    22:00 +10°C° 0 mm 1 m/s 548 mmHg 80%
    23:00 +10°C° 0 mm 1 m/s 548 mmHg 81%

    21 Décembre, Jeudi

    Heure Température Précipitation Vent Pression Humidité
    00:00 +9°C° 0 mm 1 m/s 547 mmHg 83%
    01:00 +9°C° 0 mm 1 m/s 547 mmHg 84%
    02:00 +9°C° 0 mm 1 m/s 547 mmHg 84%
    03:00 +9°C° 0 mm 1 m/s 547 mmHg 85%
    04:00 +8°C° 0 mm 1 m/s 547 mmHg 85%
    05:00 +9°C° 0 mm 1 m/s 547 mmHg 83%
    06:00 +9°C° 0 mm 1 m/s 548 mmHg 82%
    07:00 +10°C° 0 mm 1 m/s 549 mmHg 80%
    08:00 +12°C° 0 mm 1 m/s 550 mmHg 69%
    09:00 +14°C° 0 mm 1 m/s 551 mmHg 57%
    10:00 +17°C° 0 mm 2 m/s 552 mmHg 45%
    11:00 +18°C° 0 mm 2 m/s 552 mmHg 44%
    12:00 +19°C° 0 mm 2 m/s 552 mmHg 43%
    13:00 +19°C° 0 mm 2 m/s 552 mmHg 41%
    14:00 +19°C° 0 mm 2 m/s 551 mmHg 45%
    15:00 +18°C° 0 mm 2 m/s 550 mmHg 49%
    16:00 +18°C° 0 mm 1 m/s 549 mmHg 53%
    17:00 +15°C° 0 mm 1 m/s 548 mmHg 62%
    18:00 +13°C° 0 mm 1 m/s 548 mmHg 71%
    19:00 +11°C° 0 mm 1 m/s 547 mmHg 81%
    20:00 +11°C° 0 mm 1 m/s 547 mmHg 82%
    21:00 +10°C° 0 mm 1 m/s 548 mmHg 83%
    22:00 +10°C° 0 mm 1 m/s 548 mmHg 85%
    23:00 +10°C° 0 mm 1 m/s 548 mmHg 85%
    Voir plus